[[{"header":{"parameterUnit":"m.s-1","parameterCategory":1,"la1":30.2991,"la2":30.254,"lo1":-89.0895,"lo2":-89.0444,"dy":0.0017,"dx":0.0017,"nx":28,"ny":28,"refTime":"2024-05-12T21:00:00:Z","depth":0,"parameterNumber":2,"parameterNumberName":"U-component_of_WINDS"},"data":[0,0,0,0,0,0,0,0,0,0,0,0,0,0,0,0,0,0,0,0,0,0,0,0,0,0,0,0,0,0,0,0,0,0,0,0,0,0,0,0,0,0,0,0,0,0,0,0,0,0,0,0,0,0,0,0,0,0,-6.4754,-6.4755,0,-6.4862,-6.4863,-6.4864,-6.4824,-6.4822,-6.4819,-6.4817,-6.4922,-6.4927,-6.4932,0,0,0,0,0,0,0,0,0,0,0,0,0,-6.451,-6.4514,-6.4754,-6.4755,-6.4757,-6.4861,-6.4863,-6.4864,-6.4825,-6.4822,-6.4819,-6.4816,-6.4921,-6.4927,-6.4933,0,0,0,0,0,0,0,0,0,0,0,0,0,-6.4616,-6.4516,-6.4754,-6.475,-6.475,-6.4861,-6.4863,-6.4865,-6.4825,-6.4822,-6.4818,-6.4815,-6.4919,-6.4926,-6.4934,-6.5053,0,0,-6.4957,-6.496,0,0,0,0,0,0,0,0,-6.461,-6.4625,-6.4749,-6.475,-6.4751,-6.4826,-6.4815,-6.4928,-6.4826,-6.4797,-6.4817,-6.4813,-6.4893,-6.4902,-6.493,-6.5058,-6.5063,-6.4957,-6.4962,-6.4965,-6.4968,0,0,0,0,0,0,0,-6.4603,-6.462,-6.4796,-6.4751,-6.4752,-6.4741,-6.4752,-6.4836,-6.4864,-6.4799,-6.4796,-6.481,-6.4893,-6.4923,-6.4933,-6.5064,-6.4957,-6.4964,-6.4969,-6.4972,-6.5294,-6.5298,0,0,0,0,0,0,-6.4596,-6.4614,-6.4793,-6.4799,-6.467,-6.4748,-6.4761,-6.4805,-6.4863,-6.4868,-6.4813,-6.4808,-6.4912,-6.4924,-6.4936,-6.5078,-6.4965,-6.4972,-6.4977,-6.529,-6.5295,-6.5299,0,0,0,0,0,0,-6.4591,-6.4612,-6.4788,-6.4706,-6.4728,-6.4756,-6.4807,-6.4809,-6.484,-6.4873,-6.4877,-6.4839,-6.491,-6.4925,-6.5024,-6.5081,-6.4976,-6.4983,-6.5285,-6.5292,-6.5297,-6.5364,0,0,0,0,0,0,-6.4584,-6.461,-6.4657,-6.4708,-6.4733,-6.4876,-6.4811,-6.4814,-6.4854,-6.4848,-6.4899,-6.4904,-6.4908,-6.5013,-6.5032,-6.509,-6.4989,-6.528,-6.5288,-6.5295,-6.5357,-6.5371,-6.5384,0,0,0,0,0,-6.4575,-6.4671,-6.466,-6.4681,-6.4792,-6.488,-6.4894,-6.4898,-6.4858,-6.4904,-6.4926,-6.4902,-6.5073,-6.5024,-6.5044,-6.5105,-6.5277,-6.5286,-6.5295,-6.535,-6.5368,-6.5384,0,0,0,0,0,0,-6.4624,-6.4677,-6.4665,-6.4781,-6.4826,-6.4873,-6.4931,-6.4917,-6.4973,-6.4965,-6.4966,-6.4978,-6.508,-6.5103,-6.5047,-6.5224,-6.5169,-6.5182,-6.5204,-6.5221,-6.5235,-6.5225,-6.4995,0,0,0,0,0,-6.4648,-6.4717,-6.476,-6.4857,-6.4881,-6.4903,-6.4941,-6.494,-6.4987,-6.5005,-6.5034,-6.5079,-6.5142,-6.5184,-6.5244,-6.5361,-6.537,-6.5413,-6.5427,-6.5438,-6.5449,-6.551,-6.5529,-6.5329,-6.5329,-6.5329,0,0,-6.4699,-6.4736,-6.4779,-6.4868,-6.4903,-6.4972,-6.4919,-6.4994,-6.5045,-6.5016,-6.5111,-6.5134,-6.5184,-6.5292,-6.5341,-6.5315,-6.5507,-6.545,-6.5458,-6.5463,-6.5521,-6.554,-6.5557,-6.5335,-6.5334,-6.5333,0,0,-6.4825,-6.4862,-6.4946,-6.4983,-6.5038,-6.5052,-6.5073,-6.5122,-6.5137,-6.5233,-6.5213,-6.5273,-6.5383,-6.5418,-6.5451,-6.5594,-6.5572,-6.5613,-6.5683,-6.5743,-6.5759,-6.5773,-6.582,-6.5838,-6.5624,-6.5625,-6.5625,0,-6.488,-6.4985,-6.4991,-6.5069,-6.5107,-6.5087,-6.5171,-6.5207,-6.5278,-6.5304,-6.5274,-6.5411,-6.5444,-6.5559,-6.5594,-6.5622,-6.5643,-6.5605,-6.5757,-6.5771,-6.5784,-6.5829,-6.5847,-6.5629,-6.5629,-6.5628,-6.5628,0,-6.5048,-6.5121,-6.5183,-6.5253,-6.5299,-6.538,-6.5397,-6.5443,-6.5439,-6.5456,-6.5553,-6.5592,-6.5659,-6.5688,-6.5684,-6.5802,-6.5784,-6.5756,-6.57,-6.5807,-6.5849,-6.5867,-6.5635,-6.5634,-6.5632,-6.5631,0,0,-6.5205,-6.528,-6.5301,-6.5333,-6.5393,-6.5448,-6.5528,-6.5596,-6.5633,-6.5684,-6.5749,-6.5843,-6.5818,-6.5855,-6.5856,-6.5909,-6.6016,-6.5874,-6.5875,-6.5896,-6.6146,-6.6164,-6.6184,-6.6005,-6.6008,-6.6011,-6.614,0,-6.5333,-6.5474,-6.5482,-6.5609,-6.5675,-6.5658,-6.5727,-6.577,-6.5789,-6.5847,-6.5867,-6.5933,-6.5896,-6.5918,-6.597,-6.5992,-6.6066,-6.5983,-6.6062,-6.6065,-6.6046,-6.6207,-6.6226,-6.6346,-6.6157,-6.616,-6.6162,0,-6.5501,-6.5558,-6.5691,-6.5742,-6.577,-6.5832,-6.5894,-6.5951,-6.5999,-6.6009,-6.6052,-6.6045,-6.6125,-6.607,-6.6178,-6.6122,-6.6156,-6.6171,-6.6176,-6.618,-6.6117,-6.6212,-6.6385,-6.6402,-6.6189,-6.6187,-6.6185,0,-6.5598,-6.5708,-6.5802,-6.583,-6.5891,-6.5935,-6.5962,-6.6008,-6.6048,-6.6102,-6.6128,-6.6191,-6.6224,-6.6272,-6.6282,-6.6242,-6.639,-6.6336,-6.6398,-6.6398,-6.6426,-6.6423,-6.6603,-6.6455,-6.6454,-6.6454,-6.6454,0,-6.5738,-6.582,-6.5846,-6.5903,-6.5994,-6.6003,-6.6092,-6.6116,-6.6157,-6.6217,-6.6208,-6.6264,-6.6276,-6.6335,-6.6344,-6.643,-6.6447,-6.6455,-6.6455,-6.6453,-6.6452,-6.6472,-6.6462,-6.6459,-6.6458,-6.6457,-6.6456,0,-6.586,-6.5881,-6.5982,-6.6033,-6.6048,-6.6112,-6.6154,-6.6208,-6.6227,-6.6303,-6.6322,-6.635,-6.6419,-6.6435,-6.6516,-6.6522,-6.6624,-6.6619,-6.6608,-6.6606,-6.6665,-6.6658,-6.6861,-6.6887,-6.6725,-6.6726,-6.6728,0,-6.5946,-6.6008,-6.6067,-6.6107,-6.6137,-6.6203,-6.6244,-6.6256,-6.6299,-6.6359,-6.6406,-6.6474,-6.6528,-6.6638,-6.6665,-6.6727,-6.672,-6.6788,-6.6729,-6.6725,-6.6717,-6.6712,-6.6717,-6.6797,-6.6799,-6.68,-6.6801,0,-6.6096,-6.6104,-6.6164,-6.6229,-6.6278,-6.6329,-6.6378,-6.6411,-6.643,-6.6479,-6.655,-6.6592,-6.6676,-6.6742,-6.6805,-6.6832,-6.6819,-6.682,-6.6837,-6.6834,-6.6824,-6.6827,-6.6634,-6.6814,-6.6813,-6.6812,-6.6811,-6.6811,-6.62,-6.6254,-6.6304,-6.6371,-6.641,-6.6455,-6.6508,-6.6534,-6.6594,-6.6664,-6.6668,-6.6744,-6.6791,-6.6874,-6.6904,-6.6963,-6.6942,-6.6967,-6.6973,-6.6978,-6.6982,-6.6818,-6.6975,-6.6975,-6.6974,-6.6974,-6.6974,0,-6.6347,-6.6378,-6.6441,-6.6509,-6.6562,-6.6549,-6.6602,-6.6646,-6.6714,-6.676,-6.6815,-6.6895,-6.696,-6.6993,-6.7057,-6.7097,-6.7093,-6.7113,-6.7108,-6.7114,-6.6999,-6.6976,-6.7116,-6.7116,-6.7116,-6.7116,-6.7116,-6.7116,-6.6429,-6.6519,-6.6533,-6.6642,-6.6672,-6.6748,-6.6779,-6.6821,-6.6857,-6.6948,-6.7003,-6.7024,-6.7064,-6.7131,-6.719,-6.7198,-6.722,-6.7242,-6.7247,-6.7137,-6.7123,-6.7109,-6.7087,-6.7248,-6.7248,-6.7357,-6.7358,-6.7359]},{"header":{"parameterUnit":"m.s-1","parameterCategory":1,"la1":30.2991,"la2":30.254,"lo1":-89.0895,"lo2":-89.0444,"dy":0.0017,"dx":0.0017,"nx":28,"ny":28,"refTime":"2024-05-12T21:00:00:Z","depth":0,"parameterNumber":3,"parameterNumberName":"V-component_of_WINDS"},"data":[0,0,0,0,0,0,0,0,0,0,0,0,0,0,0,0,0,0,0,0,0,0,0,0,0,0,0,0,0,0,0,0,0,0,0,0,0,0,0,0,0,0,0,0,0,0,0,0,0,0,0,0,0,0,0,0,0,0,5.8658,5.8658,0,5.8682,5.8683,5.8683,5.8597,5.8594,5.8592,5.8589,5.8611,5.8614,5.8617,0,0,0,0,0,0,0,0,0,0,0,0,0,5.8535,5.8538,5.8658,5.8658,5.8659,5.8682,5.8683,5.8683,5.8597,5.8594,5.8591,5.8588,5.861,5.8613,5.8617,0,0,0,0,0,0,0,0,0,0,0,0,0,5.8577,5.8539,5.8658,5.8619,5.8615,5.8682,5.8683,5.8683,5.8598,5.8594,5.859,5.8586,5.8609,5.8613,5.8617,5.8722,0,0,5.8631,5.8633,0,0,0,0,0,0,0,0,5.8575,5.8582,5.8624,5.8622,5.8618,5.8633,5.8647,5.8696,5.8599,5.8604,5.8589,5.8585,5.8621,5.8624,5.8637,5.8723,5.8724,5.8631,5.8634,5.8636,5.8637,0,0,0,0,0,0,0,5.8572,5.858,5.8667,5.8625,5.8621,5.8599,5.8601,5.8656,5.8634,5.8604,5.8597,5.8602,5.8618,5.8633,5.8637,5.8724,5.8631,5.8635,5.8638,5.864,5.8898,5.8902,0,0,0,0,0,0,5.8575,5.8578,5.8667,5.8668,5.8587,5.8605,5.8606,5.8632,5.8633,5.863,5.8605,5.8598,5.8627,5.8632,5.8637,5.876,5.8636,5.864,5.8643,5.8894,5.8899,5.8903,0,0,0,0,0,0,5.8572,5.8583,5.8666,5.8622,5.863,5.8611,5.864,5.8634,5.8649,5.8634,5.8629,5.8624,5.8624,5.8631,5.8702,5.8759,5.8642,5.8646,5.8889,5.8895,5.8901,5.9005,0,0,0,0,0,0,5.8569,5.8583,5.8623,5.8623,5.8633,5.8731,5.8643,5.8638,5.8657,5.8647,5.8651,5.8647,5.8622,5.8696,5.8706,5.8763,5.865,5.8884,5.8892,5.8899,5.8997,5.9014,5.903,0,0,0,0,0,5.8565,5.865,5.8625,5.8636,5.8683,5.8734,5.874,5.8709,5.8662,5.8701,5.8692,5.8647,5.8752,5.8704,5.8715,5.8774,5.888,5.8889,5.8899,5.8989,5.9011,5.9029,0,0,0,0,0,0,5.8655,5.8649,5.8621,5.871,5.8723,5.8719,5.8768,5.8733,5.8759,5.8749,5.871,5.8712,5.8789,5.8789,5.8735,5.8876,5.8808,5.882,5.8873,5.8893,5.8909,5.8906,5.8653,0,0,0,0,0,5.8686,5.8729,5.8721,5.88,5.8808,5.8788,5.8809,5.8785,5.8797,5.8801,5.8797,5.881,5.8846,5.887,5.8902,5.8997,5.8996,5.9044,5.906,5.9074,5.9084,5.9134,5.9155,5.8934,5.8934,5.8934,0,0,5.8748,5.875,5.878,5.8818,5.8825,5.887,5.8793,5.8843,5.8876,5.8809,5.8875,5.8874,5.8885,5.8969,5.9005,5.8971,5.9145,5.9086,5.9097,5.9099,5.9146,5.9167,5.9185,5.8941,5.894,5.8939,0,0,5.8884,5.8891,5.8957,5.8967,5.8981,5.8967,5.8983,5.8986,5.8982,5.9049,5.9,5.9038,5.9101,5.9111,5.9124,5.9268,5.9227,5.928,5.9365,5.9415,5.9432,5.9447,5.9497,5.9516,5.9291,5.9291,5.9291,0,5.896,5.9026,5.8995,5.905,5.9068,5.9012,5.9078,5.9089,5.9112,5.9125,5.9087,5.9165,5.9169,5.9254,5.929,5.9303,5.9319,5.9278,5.9432,5.9447,5.9461,5.9508,5.9527,5.9297,5.9296,5.9296,5.9295,0,5.9118,5.9165,5.9217,5.9242,5.9266,5.9326,5.9304,5.9333,5.9308,5.9298,5.9367,5.937,5.9402,5.9421,5.9397,5.9504,5.9482,5.9439,5.9369,5.9488,5.9532,5.955,5.9306,5.9304,5.9302,5.93,0,0,5.9308,5.9318,5.9337,5.9348,5.9361,5.9396,5.9454,5.9487,5.9512,5.953,5.9577,5.9633,5.9594,5.9609,5.9585,5.963,5.9743,5.9581,5.958,5.9609,5.986,5.9891,5.9913,5.9717,5.9721,5.9723,5.9859,0,5.9441,5.9541,5.9517,5.9616,5.9659,5.9608,5.9658,5.9671,5.9665,5.9699,5.9692,5.9731,5.9677,5.9686,5.9728,5.972,5.9792,5.971,5.9759,5.9761,5.9755,5.9936,5.9968,6.0096,5.9876,5.9879,5.9881,0,5.9609,5.9636,5.974,5.9746,5.9763,5.9809,5.9838,5.9873,5.9886,5.9878,5.9898,5.9866,5.9923,5.9855,5.9933,5.9878,5.9897,5.9897,5.9901,5.9902,5.9826,5.994,6.0136,6.0154,5.9908,5.9906,5.9904,0,5.9736,5.9798,5.9868,5.988,5.9889,5.9923,5.9928,5.9939,5.996,5.9986,5.9999,6.0031,6.0047,6.0072,6.005,6.0003,6.0131,6.0061,6.0125,6.0125,6.0151,6.015,6.0351,6.0168,6.0167,6.0167,6.0167,0,5.9885,5.9951,5.9926,5.9969,6.004,6.0012,6.0083,6.0083,6.0093,6.0135,6.0093,6.0133,6.0102,6.0139,6.0122,6.0188,6.0197,6.0191,6.0185,6.0194,6.0194,6.0203,6.0193,6.0172,6.0171,6.017,6.0169,0,6.0038,6.0024,6.0097,6.0101,6.0104,6.0157,6.016,6.0199,6.0191,6.0245,6.0255,6.0242,6.0284,6.0265,6.0308,6.0297,6.0382,6.0365,6.0377,6.0372,6.0436,6.043,6.0649,6.0676,6.0477,6.0479,6.0481,0,6.0133,6.0182,6.0193,6.0219,6.0228,6.0269,6.0292,6.0267,6.0292,6.0313,6.035,6.0389,6.0417,6.0487,6.048,6.0513,6.0496,6.0571,6.05,6.0507,6.0495,6.0492,6.0496,6.0584,6.0586,6.0588,6.0589,0,6.0304,6.0295,6.033,6.0364,6.0392,6.0417,6.0438,6.0461,6.0436,6.0467,6.051,6.0533,6.0579,6.0617,6.0647,6.0651,6.0616,6.0612,6.0628,6.0636,6.064,6.0638,6.0414,6.0606,6.0605,6.0604,6.0603,6.0602,6.0429,6.0471,6.0485,6.0526,6.054,6.0561,6.0599,6.0596,6.0632,6.0668,6.0651,6.0701,6.0714,6.0751,6.0761,6.0799,6.0769,6.0793,6.0798,6.0804,6.0812,6.0637,6.0804,6.0804,6.0803,6.0803,6.0803,0,6.0596,6.0604,6.0642,6.0674,6.0706,6.0673,6.0695,6.0723,6.0768,6.0785,6.0815,6.0865,6.0903,6.0901,6.0935,6.0966,6.0951,6.0976,6.0972,6.0974,6.0837,6.0819,6.0988,6.0988,6.0988,6.0988,6.0988,6.0988,6.0687,6.0756,6.0749,6.0825,6.0831,6.0881,6.0896,6.0916,6.0929,6.0987,6.1018,6.1018,6.1026,6.1062,6.1095,6.1093,6.1107,6.1138,6.113,6.1002,6.0984,6.0966,6.0949,6.1142,6.1142,6.1263,6.1265,6.1265]}]]